Home   Weather   Cayo Largo   Past weeks
Flag for Cuba

Past Weather in Cayo Largo, Cuba — Yesterday and Last 2 Weeks

Now
77 °F

Passing clouds.


Feels Like: 78 °F
Forecast: 89 / 77 °F
Wind: 6 mph from East

Location: Aeropuerto Jose Marti - Rancho-Boyeros - Habana

Current Time: Aug 19, 2019 at 2:37:11 am

Latest Report: Aug 19, 2019 at 1:55 am


Visibility: 6 mi

Pressure: 30.04 "Hg

Humidity: 100%

Dew Point: 77 °F

Location of Cayo LargoLocation

Past Weather in Cayo Largo — Graph

°F

Cayo Largo Temperature Yesterday

Maximum temperature yesterday: 91 °F (at 2:55 pm)
Minimum temperature yesterday: 72 °F (at 6:55 am)
Average temperature yesterday: 82 °F

High & Low Weather Summary for the Past Weeks

 TemperatureHumidityPressure
High93 °F (Aug 8, 2:55 pm)100% (Aug 4, 12:55 am)30.12 "Hg (Aug 4, 12:55 am)
Low72 °F (Aug 5, 5:55 am)46% (Aug 17, 1:55 pm)29.92 "Hg (Aug 13, 3:55 am)
Average81 °F83%30.02 "Hg
* Reported Aug 4 12:55 am — Aug 19 12:55 am, Cayo Largo. Weather by CustomWeather, © 2019

Note: Actual official high and low records may vary slightly from our data, if they occured in-between our weather recording intervals... More about our weather records

Advertising

Cayo Largo Weather History for the Previous 24 Hours

Scroll right to see more
 ConditionsComfort  
Time TempWeatherWind HumidityBarometerVisibility
12:55 am
Mon, Aug 19
77 °FPassing clouds.3 mph100%30.04 "Hg6 mi
11:55 pm
Sun, Aug 18
79 °FPassing clouds.6 mph94%30.07 "Hg6 mi
10:55 pm79 °FPassing clouds.5 mph94%30.04 "Hg6 mi
9:55 pm81 °FPassing clouds.7 mph89%30.04 "Hg6 mi
8:55 pm82 °FPassing clouds.7 mph84%30.01 "Hg6 mi
7:55 pm84 °FPassing clouds.10 mph74%30.01 "Hg6 mi
6:55 pm86 °FPassing clouds.9 mph62%29.98 "Hg6 mi
5:55 pm90 °FThundershowers. Passing clouds.13 mph67%29.98 "Hg5 mi
4:55 pm91 °FScattered clouds.9 mph67%29.98 "Hg6 mi
3:55 pm90 °FScattered clouds.10 mph63%30.01 "Hg6 mi
2:55 pm91 °FScattered clouds.9 mph59%30.04 "Hg6 mi
1:55 pm90 °FPartly sunny.7 mph67%30.04 "Hg6 mi
12:55 pm90 °FScattered clouds.9 mph63%30.07 "Hg6 mi
11:55 am90 °FPassing clouds.10 mph63%30.07 "Hg6 mi
10:55 am88 °FPassing clouds.12 mph66%30.07 "Hg6 mi
9:55 am84 °FClear.8 mph79%30.07 "Hg6 mi
8:55 am81 °FClear.5 mph94%30.04 "Hg6 mi
7:55 am73 °FPartly sunny.3 mph100%30.04 "Hg5 mi
6:55 am72 °FPassing clouds.3 mph100%30.04 "Hg5 mi
5:55 am73 °FPassing clouds.2 mph94%30.04 "Hg5 mi
4:55 am73 °FPassing clouds.5 mph94%30.04 "Hg5 mi
3:55 am73 °FPassing clouds.2 mph89%30.07 "Hg5 mi
2:55 am73 °FPassing clouds.5 mph83%30.07 "Hg5 mi
Weather by CustomWeather, © 2019

See weather overview